DW2373 Thessaloniki GR current weather conditions

sailwx.info

Wind from 315

Air temperature 10.6° C
Dewpoint 3.4° C

Last reported at 2015-Apr-21 01:03 UTC.
Time now 2015-Apr-21 02:58 UTC

Location: N 40°31' E 022°58'.
View on Google Maps.

See reports from other nearby stations

  
Tides and Currents Weather Stations Pressure Air Temp Water Temp Dewpoint Dewpoint Depression Visibility Wind Speed Wind Dir Waves Ship Positions
date/time (UTC)wind fromknots sea level pressurealtimeterstation pressurevisibilityair tempwater tempwave heightnotes
2015-Apr-21 01:03 315 10.6
2015-Apr-21 00:03 126 0 gusting 2 10.6
2015-Apr-20 23:03 135 10.6
2015-Apr-20 22:03 075 0 gusting 4 10.6
2015-Apr-20 21:03 090 1 gusting 2 11.1
2015-Apr-20 20:03 090 1 gusting 2 11.7
2015-Apr-20 19:03 225 0 gusting 2 12.8
2015-Apr-20 18:03 225 0 gusting 2 13.9
2015-Apr-20 17:03 225 0 gusting 2 15.6
2015-Apr-20 16:03 112 2 gusting 4 16.7
2015-Apr-20 15:03 242 2 gusting 6 17.8
2015-Apr-20 14:03 272 1 gusting 6 17.8
2015-Apr-20 13:03 296 1 gusting 6 17.8
2015-Apr-20 12:03 301 2 gusting 6 17.2
2015-Apr-20 11:03 241 3 gusting 6 15.6
2015-Apr-20 10:03 333 1 gusting 6 15.0
2015-Apr-20 09:03 045 0 gusting 4 13.3
2015-Apr-20 08:03 045 0 12.2
2015-Apr-20 07:03 045 0 gusting 1 11.1
2015-Apr-20 06:03 045 0 gusting 2 10.6
2015-Apr-20 05:03 108 0 gusting 4 10.6
2015-Apr-20 04:03 136 1 gusting 4 10.6
2015-Apr-20 03:03 121 2 gusting 4 10.6
2015-Apr-20 02:03 154 10.6
2015-Apr-20 01:03 081 1 gusting 4 10.6
2015-Apr-20 00:03 005 11.1
2015-Apr-19 23:03 022 5 gusting 4 10.6
2015-Apr-19 22:03 022 5 gusting 4 10.6
2015-Apr-19 21:03 022 5 gusting 4 11.1
2015-Apr-19 20:03 022 5 gusting 4 11.7
2015-Apr-19 19:03 022 5 gusting 4 12.2
2015-Apr-19 18:03 022 5 gusting 4 12.2
2015-Apr-19 17:03 022 5 gusting 4 12.8
2015-Apr-19 16:03 022 5 gusting 4 13.3
2015-Apr-19 15:03 022 5 gusting 4 13.9
2015-Apr-19 14:03 022 5 gusting 4 14.4
2015-Apr-19 13:03 022 5 gusting 4 15.0
2015-Apr-19 12:03 022 5 gusting 11 15.0
2015-Apr-19 11:03 320 5 gusting 13 15.0
2015-Apr-19 10:03 343 5 gusting 17 15.0
2015-Apr-19 09:03 309 7 gusting 13 15.0
2015-Apr-19 08:03 327 6 gusting 14 15.0
2015-Apr-19 07:03 310 7 gusting 15 13.9
2015-Apr-19 06:03 331 5 gusting 14 13.3
2015-Apr-19 05:03 007 5 gusting 14 12.8
2015-Apr-19 04:03 338 3 gusting 11 12.8
2015-Apr-19 03:03 345 3 gusting 12 13.3
2015-Apr-19 02:03 347 2 gusting 13 14.4